User: anonymous   Login
Location: Innsbruck
(47.2657°N, 11.3914°E)
Time: 16:40:26
(UTC+01:00)
Language:

BEESAT 3 - Orbit

View from above orbital plane
View from above orbital plane
View from above satellite
View from above satellite

Ground track
Ground track

The orbit data is extracted from the following two-line orbital elements,

1 39134U 13015E   21331.48025113  .00004471  00000-0  19208-3 0  9993
2 39134  64.8645   1.9002 0024602 309.9854  49.9115 15.23773470476420
Epoch (UTC): 27 November 2021 11:31:33
Eccentricity: 0.0024602
inclination: 64.8645°
perigee height: 477 km
apogee height: 511 km
right ascension of ascending node: 1.9002°
argument of perigee: 309.9854°
revolutions per day: 15.23773470
mean anomaly at epoch: 49.9115°
orbit number at epoch: 47642

The dashed part of the orbit path shows where the satellite is in the earth's shadow,  

DLR